Memorial Field Hot Springs US
ICAO: KHOT
IATA: HOT
Category: Medium
Scheduled Services: Yes

Elevation: 540 ft
TransAlt. 18000 ft.

Airport Communications:
MEMPHIS CNTR:127.825
ASOS:119.925
JONESBORO RDO:110
CTAF/UNICOM:123

KHOT Zoom In..

If you have problems with the map follow the link
https://www.worldairports.se/pages/airport.php?
ICAO=KHOT

Runways:

(A) RW 05 length 6595 ft width 150 ft
ILS 111.50 / hdg 50

(B) RW 13 length 4098 ft width 100 ft
---- / hdg 130

(C) RW 23 length 6595 ft width 150 ft
---- / hdg 230

(D) RW 31 length 4098 ft width 100 ft
---- / hdg 310

Location; KHOT
Day. 19 / Time. 13.23 Zulu
* Altimeter: 30.19
* Temperature: 04° c. 39.2°f.
* Wind from: 000° Speed 00 kn.
Dewpoint: 02° c.
Visibility: 10 Statute Miles.
Clouds: Broken 2500 ft.

KHOT 191323Z AUTO 00000KT 10SM BKN025 04/02 A3019 RMK AO2 T00390022


Wind - Calm.

 
 
jpsmedia.com for Web Design worldairports.se 2018   terms of use